Flag for Canada Weather past 2 weeks in Grande Prairie, Alberta, Canada

Now
3 °F

Ice fog.


Feels Like: -4 °F
Forecast: 8 / 17 °F
Wind: 3 mph from North

Location: Grande Prairie

Current Time: Dec 27, 2014 at 10:26:19 AM

Latest Report: Dec 27, 2014 at 9:00 AM


Visibility: 3 mi

Pressure: 30.07 "Hg

Humidity: 85%

Dew point: 0 °F

Location of Grande PrairieLocation

Historic Weather in Grande Prairie — Graph

°F

Grande Prairie temperature yesterday

Maximum temperature yesterday: 7 °F (at 1:00 PM)
Minimum temperature yesterday: -8 °F (at 3:00 AM)
Average temperature yesterday: 0 °F

Past Weeks' High & Low Weather Summary

 TemperatureHumidityPressure
High34 °F (Dec 21, 1:00 PM)100% (Dec 12, 9:00 AM)30.44 "Hg (Dec 12, 9:00 AM)
Low-8 °F (Dec 16, 8:00 AM)69% (Dec 13, 4:00 PM)29.34 "Hg (Dec 21, 1:00 AM)
Average11 °F88%29.96 "Hg
* Reported Dec 12 9:00 AM — Dec 27 9:00 AM, Grande Prairie, Weather by CustomWeather, © 2014

Note: Actual official high and low records may vary slightly from our data, if they occured in-between our weather recording intervals... More about our weather records

Advertising

Grande Prairie weather history for previous 24 hours

 ConditionsComfort  
Time TempWeatherWind HumidityBarometerVisibility
9:00 AM
Dec 27
3 °FIce fog.3 mph85%30.07 "Hg3 mi
8:00 AM3 °FIce fog.3 mph85%30.08 "Hg1 mi
7:49 AM1 °FIce fog.2 mph85%30.09 "Hg1 mi
7:00 AM1 °FIce fog.No wind92%30.09 "Hg1 mi
6:00 AM1 °FIce fog.2 mph85%30.10 "Hg1 mi
5:04 AM3 °FIce fog.3 mph85%30.11 "Hg0 mi
5:00 AM3 °FIce fog.3 mph85%30.11 "Hg1 mi
4:45 AM1 °FIce fog.2 mph85%30.11 "Hg1 mi
4:00 AM7 °FFog.No wind85%30.11 "Hg25 mi
3:00 AM5 °FPartly cloudy.2 mph85%30.11 "Hg25 mi
2:00 AM7 °FOvercast.5 mph85%30.10 "Hg25 mi
1:00 AM9 °FOvercast.3 mph85%30.11 "Hg25 mi
12:00 AM5 °FMostly cloudy.3 mph92%30.12 "Hg25 mi
11:00 PM
Dec 26
7 °FOvercast.5 mph85%30.13 "Hg25 mi
10:00 PM1 °FPassing clouds.No wind92%30.15 "Hg25 mi
9:00 PM3 °FPassing clouds.No wind92%30.16 "Hg25 mi
8:00 PM1 °FPassing clouds.2 mph85%30.19 "Hg25 mi
7:00 PM1 °FPassing clouds.3 mph92%30.19 "Hg25 mi
6:00 PM5 °FPassing clouds.5 mph92%30.19 "Hg25 mi
5:00 PM5 °FPartly cloudy.5 mph92%30.19 "Hg25 mi
4:00 PM7 °FBroken clouds.2 mph85%30.17 "Hg25 mi
3:00 PM7 °FPartly sunny.3 mph85%30.19 "Hg25 mi
2:00 PM7 °FPartly sunny.2 mph85%30.19 "Hg25 mi
1:00 PM7 °FPartly sunny.2 mph85%30.20 "Hg25 mi
12:00 PM5 °FPartly sunny.No wind85%30.22 "Hg25 mi
11:00 AM1 °FPartly sunny.No wind92%30.24 "Hg20 mi
10:00 AM-2 °FPartly sunny.2 mph84%30.23 "Hg15 mi
Weather by CustomWeather, © 2014

See weather overviewHow to use our weather pages